Weather History for CWUW - October, 2012

Change the Weather History Date:

Wednesday, October 31, 2012

  Actual Average Record
Temperature  
Mean Temperature 4 °F -  
Max Temperature 8 °F 11 °F 23 °F (2011)
Min Temperature 0 °F 2 °F -9 °F (2008)
Degree Days  
Heating Degree Days 61    
Moisture  
Dew Point -    
Average Humidity    
Maximum Humidity    
Minimum Humidity    
Precipitation  
Precipitation 0.00 in - - ()
Sea Level Pressure  
Sea Level Pressure 30.42 in    
Wind  
Wind Speed 8 mph ()    
Max Wind Speed 13 mph    
Max Gust Speed -    
Visibility 6.2 miles    
Events Snow    
Averages and records for this station are not official NWS values.
T = Trace of Precipitation, MM = Missing Value Source: Averaged Metar Reports

Daily Weather History Graph

Daily Weather History Graph

Search for Another Location

Airport or City:

Trip Planner

Search our weather history database for the weather conditions in past years. The results will help you decide how hot, cold, wet, or windy it might be!

Date:

Astronomy

Oct. 31, 2012 Rise Set
Actual Time 8:59 AM EDT 3:55 PM EDT
Civil Twilight 7:51 AM EDT 5:03 PM EDT
Nautical Twilight 6:42 AM EDT 6:12 PM EDT
Astronomical Twilight 5:36 AM EDT 7:18 PM EDT
Moon 3:30 PM EDT (10/31) 12:09 PM EDT (10/31)
Length of Visible Light 9h 11m
Length of Day
6h 56m
Full, 97% of the Moon is Illuminated
Oct 31
Full
Nov 6
Last Quarter
Nov 13
New
Nov 20
First Quarter
Nov 28
Full

Hourly Weather History & Observations

Time (EDT) Temp. Windchill Dew Point Humidity Pressure Visibility Wind Dir Wind Speed Gust Speed Precip Events Conditions
12:00 AM 1.4 °F -14.5 °F - N/A% 30.59 in 0.6 mi NW 10.4 mph - N/A   Clear
12:13 AM 1.4 °F -13.5 °F - N/A% 30.38 in 0.4 mi NW 9.2 mph - N/A   Clear
12:23 AM 1.4 °F -13.5 °F - N/A% 30.39 in 0.1 mi WNW 9.2 mph - N/A   Clear
1:00 AM 1.4 °F -13.5 °F - N/A% 30.59 in 0.4 mi NNW 9.2 mph - N/A   Clear
1:25 AM 1.4 °F -13.5 °F - N/A% 30.39 in 0.1 mi NW 9.2 mph - N/A   Clear
2:00 AM 1 °F - - % 30.60 in 0 mi NNW 10.4 mph - -  
2:00 AM 1.4 °F -14.5 °F - N/A% 30.60 in 0.1 mi NNW 10.4 mph - N/A   Clear
3:00 AM -0.4 °F -16.7 °F - N/A% 30.61 in 0.1 mi North 10.4 mph - N/A   Clear
3:54 AM 1.4 °F -15.3 °F - N/A% 30.39 in 0.1 mi NNW 11.5 mph - N/A Snow Light Snow
4:00 AM 1.4 °F -15.3 °F - N/A% 30.60 in 0.1 mi NNW 11.5 mph - N/A Snow Light Snow
4:04 AM 1.4 °F -14.5 °F - N/A% 30.39 in 0.1 mi North 10.4 mph - N/A   Clear
5:00 AM 1 °F - - % 30.60 in 0 mi North 9.2 mph - -  
5:00 AM 1.4 °F -13.5 °F - N/A% 30.60 in 0.1 mi North 9.2 mph - N/A   Clear
6:00 AM 1.4 °F -8.3 °F - N/A% 30.60 in 0.1 mi North 4.6 mph - N/A   Clear
6:14 AM 1.4 °F -11.3 °F - N/A% 30.40 in 0.2 mi NNW 6.9 mph - N/A   Clear
6:21 AM 1.4 °F -12.5 °F - N/A% 30.39 in 0.8 mi NW 8.1 mph - N/A   Clear
6:25 AM 1.4 °F -12.5 °F - N/A% 30.39 in 1.6 mi NW 8.1 mph - N/A   Clear
6:38 AM 1.4 °F -11.3 °F - N/A% 30.39 in 5.0 mi NW 6.9 mph - N/A   Clear
6:51 AM 1.4 °F -11.3 °F - N/A% 30.40 in 7.0 mi NNW 6.9 mph - N/A   Overcast
7:00 AM 1.4 °F -11.3 °F - N/A% 30.60 in 8.0 mi NW 6.9 mph - N/A   Overcast
7:29 AM 1.4 °F -12.5 °F - N/A% 30.39 in 9.0 mi NNW 8.1 mph - N/A   Overcast
8:00 AM 2 °F - - % 30.59 in 9 mi NNW 6.9 mph - -   Overcast
8:00 AM 3.2 °F -7.8 °F - N/A% 30.59 in 9.0 mi NNW 5.8 mph - N/A   Overcast
8:09 AM 3.2 °F -7.8 °F - N/A% 30.38 in 9.0 mi North 5.8 mph - N/A   Overcast
8:33 AM 3.2 °F -9.1 °F - N/A% 30.39 in 9.0 mi NNW 6.9 mph - N/A   Overcast
8:53 AM 3.2 °F -11.3 °F - N/A% 30.39 in 9.0 mi NW 9.2 mph - N/A   Overcast
8:54 AM 3.2 °F -11.3 °F - N/A% 30.39 in 9.0 mi NW 9.2 mph - N/A   Overcast
9:00 AM 3.2 °F -11.3 °F - N/A% 30.59 in 9.0 mi NNW 9.2 mph - N/A   Overcast
9:27 AM 3.2 °F -9.1 °F - N/A% 30.38 in 9.0 mi NW 6.9 mph - N/A   Overcast
9:35 AM 3.2 °F -9.1 °F - N/A% 30.38 in 9.0 mi NNW 6.9 mph - N/A   Overcast
9:50 AM 3.2 °F -9.1 °F - N/A% 30.38 in 9.0 mi North 6.9 mph - N/A   Overcast
9:54 AM 3.2 °F -11.3 °F - N/A% 30.38 in 9.0 mi North 9.2 mph - N/A   Overcast
10:00 AM 3.2 °F -10.3 °F - N/A% 30.58 in 9.0 mi North 8.1 mph - N/A   Overcast
10:07 AM 3.2 °F -11.3 °F - N/A% 30.38 in 9.0 mi North 9.2 mph - N/A   Overcast
10:16 AM 3.2 °F -10.3 °F - N/A% 30.38 in 9.0 mi North 8.1 mph - N/A   Overcast
10:39 AM 3.2 °F -7.8 °F - N/A% 30.38 in 9.0 mi North 5.8 mph - N/A   Overcast
10:44 AM 3.2 °F -11.3 °F - N/A% 30.38 in 9.0 mi North 9.2 mph - N/A   Overcast
10:54 AM 3.2 °F -9.1 °F - N/A% 30.38 in 9.0 mi North 6.9 mph - N/A   Overcast
10:56 AM 3.2 °F -9.1 °F - N/A% 30.38 in 9.0 mi North 6.9 mph - N/A   Overcast
11:00 AM 3 °F - - % 30.58 in 9 mi North 6.9 mph - -   Overcast
11:00 AM 3.2 °F -9.1 °F - N/A% 30.58 in 9.0 mi North 6.9 mph - N/A   Overcast
11:12 AM 3.2 °F -9.1 °F - N/A% 30.37 in 9.0 mi North 6.9 mph - N/A   Overcast
11:35 AM 3.2 °F -7.8 °F - N/A% 30.38 in 9.0 mi North 5.8 mph - N/A   Overcast
11:51 AM 3.2 °F -11.3 °F - N/A% 30.38 in 9.0 mi NNE 9.2 mph - N/A   Overcast
11:59 AM 3.2 °F -12.2 °F - N/A% 30.38 in 9.0 mi NNE 10.4 mph - N/A   Overcast
12:00 PM 3.2 °F -10.3 °F - N/A% 30.58 in 9.0 mi NNE 8.1 mph - N/A   Overcast
12:08 PM 3.2 °F -6.2 °F - N/A% 30.38 in 8.0 mi North 4.6 mph - N/A   Overcast
12:21 PM 3.2 °F -10.3 °F - N/A% 30.38 in 6.0 mi North 8.1 mph - N/A   Overcast
12:26 PM 3.2 °F -10.3 °F - N/A% 30.38 in 6.0 mi North 8.1 mph - N/A   Overcast
12:30 PM 3.2 °F -9.1 °F - N/A% 30.38 in 7.0 mi North 6.9 mph - N/A   Overcast
12:36 PM 3.2 °F -7.8 °F - N/A% 30.38 in 7.0 mi North 5.8 mph - N/A   Overcast
12:48 PM 3.2 °F -10.3 °F - N/A% 30.38 in 7.0 mi North 8.1 mph - N/A   Overcast
12:50 PM 3.2 °F -9.1 °F - N/A% 30.38 in 7.0 mi North 6.9 mph - N/A Snow Light Snow
12:52 PM 3.2 °F -9.1 °F - N/A% 30.38 in 7.0 mi North 6.9 mph - N/A Snow Light Snow
12:59 PM 3.2 °F -6.2 °F - N/A% 30.39 in 7.0 mi North 4.6 mph - N/A Snow Light Snow
1:00 PM 3.2 °F -6.2 °F - N/A% 30.59 in 7.0 mi North 4.6 mph - N/A Snow Light Snow
1:31 PM 3.2 °F -7.8 °F - N/A% 30.38 in 5.0 mi NNE 5.8 mph - N/A Snow Light Snow
1:39 PM 3.2 °F -10.3 °F - N/A% 30.37 in 5.0 mi NNE 8.1 mph - N/A   Overcast
1:42 PM 3.2 °F -7.8 °F - N/A% 30.37 in 5.0 mi NNE 5.8 mph - N/A Snow Light Snow
1:54 PM 3.2 °F -6.2 °F - N/A% 30.37 in 7.0 mi NE 4.6 mph - N/A Snow Light Snow
2:00 PM 3 °F - - % 30.58 in 5 mi ENE 4.6 mph - -   Overcast
2:00 PM 3.2 °F -6.2 °F - N/A% 30.58 in 5.0 mi ENE 4.6 mph - N/A Snow Light Snow
2:03 PM 3.2 °F -6.2 °F - N/A% 30.37 in 2.6 mi ENE 4.6 mph - N/A Snow Light Snow
2:15 PM 3.2 °F -4.2 °F - N/A% 30.37 in 2.5 mi East 3.5 mph - N/A Snow Light Snow
2:20 PM 3.2 °F -7.8 °F - N/A% 30.37 in 3.0 mi East 5.8 mph - N/A Snow Light Snow
2:22 PM 3.2 °F -4.2 °F - N/A% 30.37 in 3.0 mi ESE 3.5 mph - N/A   Mostly Cloudy
2:27 PM 3.2 °F -7.8 °F - N/A% 30.37 in 5.0 mi ENE 5.8 mph - N/A   Mostly Cloudy
3:00 PM 3.2 °F -9.1 °F - N/A% 30.57 in 9.0 mi East 6.9 mph - N/A   Overcast
3:20 PM 3.2 °F -9.1 °F - N/A% 30.37 in 9.0 mi ENE 6.9 mph - N/A   Overcast
4:00 PM 3.2 °F -7.8 °F - N/A% 30.58 in 7.0 mi East 5.8 mph - N/A   Overcast
4:29 PM 3.2 °F -10.3 °F - N/A% 30.36 in 8.0 mi East 8.1 mph - N/A   Overcast
4:30 PM 3.2 °F -10.3 °F - N/A% 30.36 in 8.0 mi East 8.1 mph - N/A Snow Light Snow
4:38 PM 3.2 °F -9.1 °F - N/A% 30.36 in 8.0 mi East 6.9 mph - N/A   Overcast
4:40 PM 3.2 °F -10.3 °F - N/A% 30.36 in 8.0 mi East 8.1 mph - N/A Snow Snow
4:56 PM 3.2 °F -10.3 °F - N/A% 30.36 in 8.0 mi East 8.1 mph - N/A   Overcast
5:00 PM 3 °F - - % 30.56 in 7 mi East 6.9 mph - -   Overcast
5:00 PM 3.2 °F -9.1 °F - N/A% 30.56 in 8.0 mi East 6.9 mph - N/A   Overcast
5:06 PM 3.2 °F -10.3 °F - N/A% 30.36 in 7.0 mi East 8.1 mph - N/A   Overcast
5:16 PM 3.2 °F -10.3 °F - N/A% 30.36 in 8.0 mi East 8.1 mph - N/A   Overcast
6:00 PM 3.2 °F -9.1 °F - N/A% 30.56 in 9.0 mi East 6.9 mph - N/A   Overcast
6:46 PM 5.0 °F -10.0 °F - N/A% 30.35 in 8.0 mi SE 10.4 mph - N/A Snow Light Snow
6:58 PM 5.0 °F -10.8 °F - N/A% 30.34 in 8.0 mi SE 11.5 mph - N/A Snow Light Snow
7:00 PM 5.0 °F -10.8 °F - N/A% 30.54 in 8.0 mi SE 11.5 mph - N/A Snow Light Snow
7:20 PM 5.0 °F -10.0 °F - N/A% 30.34 in 9.0 mi SE 10.4 mph - N/A   Overcast
7:27 PM 5.0 °F -10.8 °F - N/A% 30.34 in 9.0 mi SE 11.5 mph - N/A   Overcast
7:33 PM 5.0 °F -10.8 °F - N/A% 30.34 in 9.0 mi SE 11.5 mph - N/A Snow Light Snow
7:55 PM 6.8 °F -7.8 °F - N/A% 30.33 in 7.0 mi SSE 10.4 mph - N/A Snow Light Snow
8:00 PM 6 °F - - % 30.53 in 3 mi SSE 10.4 mph - -  
8:00 PM 6.8 °F -8.6 °F - N/A% 30.53 in 2.8 mi SSE 11.5 mph - N/A Snow Light Snow
8:04 PM 6.8 °F -8.6 °F - N/A% 30.33 in 2.0 mi SSE 11.5 mph - N/A Snow Light Snow
8:10 PM 6.8 °F -8.6 °F - N/A% 30.33 in 1.5 mi SSE 11.5 mph - N/A Snow Light Snow
8:17 PM 6.8 °F -8.6 °F - N/A% 30.33 in 2.1 mi SSE 11.5 mph - N/A Snow Light Snow
8:20 PM 6.8 °F -8.6 °F - N/A% 30.33 in 2.0 mi SSE 11.5 mph - N/A Snow Light Snow
8:35 PM 6.8 °F -7.8 °F - N/A% 30.33 in 3.0 mi SSE 10.4 mph - N/A Snow Light Snow
8:38 PM 6.8 °F -7.8 °F - N/A% 30.33 in 3.0 mi SSE 10.4 mph - N/A Snow Light Snow
8:40 PM 6.8 °F -7.8 °F - N/A% 30.33 in 5.0 mi SSE 10.4 mph - N/A Snow Light Snow
8:52 PM 6.8 °F -9.3 °F - N/A% 30.32 in 5.0 mi South 12.7 mph - N/A Snow Light Snow
8:59 PM 6.8 °F -7.8 °F - N/A% 30.32 in 5.0 mi SSE 10.4 mph - N/A Snow Light Snow
9:00 PM 6.8 °F -7.8 °F - N/A% 30.52 in 6.0 mi SSE 10.4 mph - N/A Snow Light Snow
9:05 PM 6.8 °F -7.8 °F - N/A% 30.32 in 6.0 mi SSE 10.4 mph - N/A Snow Light Snow
9:11 PM 6.8 °F -7.8 °F - N/A% 30.32 in 5.0 mi SSE 10.4 mph - N/A Snow Light Snow
9:12 PM 6.8 °F -6.9 °F - N/A% 30.32 in 5.0 mi SSE 9.2 mph - N/A Snow Light Snow
9:47 PM 6.8 °F -7.8 °F - N/A% 30.32 in 9.0 mi SSE 10.4 mph - N/A   Overcast
10:00 PM 6.8 °F -7.8 °F - N/A% 30.51 in 9.0 mi SSE 10.4 mph - N/A   Overcast
10:10 PM 6.8 °F -7.8 °F - N/A% 30.31 in 9.0 mi SSE 10.4 mph - N/A   Overcast
10:22 PM 6.8 °F -6.9 °F - N/A% 30.30 in 9.0 mi SSE 9.2 mph - N/A   Overcast
10:26 PM 6.8 °F -7.8 °F - N/A% 30.30 in 9.0 mi SSE 10.4 mph - N/A   Overcast
10:58 PM 8.6 °F -6.3 °F - N/A% 30.30 in 9.0 mi SSE 11.5 mph - N/A   Overcast
11:00 PM 8 °F - - % 30.49 in 9 mi SSE 10.4 mph - -   Overcast
11:00 PM 8.6 °F -5.5 °F - N/A% 30.49 in 9.0 mi SSE 10.4 mph - N/A   Overcast
11:08 PM 8.6 °F -5.5 °F - N/A% 30.30 in 9.0 mi SSE 10.4 mph - N/A   Overcast
11:32 PM 8.6 °F -4.7 °F - N/A% 30.30 in 9.0 mi SSE 9.2 mph - N/A   Overcast
11:38 PM 8.6 °F -5.5 °F - N/A% 30.29 in 9.0 mi South 10.4 mph - N/A Snow Light Snow
11:51 PM 8.6 °F -4.7 °F - N/A% 30.29 in 9.0 mi SSE 9.2 mph - N/A   Overcast
11:57 PM 8.6 °F -4.7 °F - N/A% 30.29 in 9.0 mi SSE 9.2 mph - N/A   Overcast